Tracking 29790 objects as of 12-Oct-2024
HD Live streaming from Space Station
objects crossing your sky now

SL-14 DEB

Track SL-14 DEB now!
10-day predictions


NORAD ID: 45276
Int'l Code: 1991-056N
Perigee: 1,124.0 km
Apogee: 1,199.1 km
Inclination: 82.6 °
Period: 108.4 minutes
Semi major axis: 7532 km
RCS: Unknown
Launch date: August 15, 1991
Source: Commonwealth of Independent States (former USSR) (CIS)
Launch site: PLESETSK MISSILE AND SPACE COMPLEX (PKMTR)

Note: This is SATELLITE DEBRIS
Your satellite tracking list
Your tracking list is empty




NASA's NSSDC Master Catalog

Two Line Element Set (TLE):
1 45276U 91056N   24285.85674047  .00001687  00000-0  36708-2 0  9995
2 45276  82.5917 196.9421 0049828  74.8594 285.8039 13.27980392225679
Source of the keplerian elements: AFSPC